Voltar ao catálogo

JILIN-1 SAR-01A

AtivoCiênciaSSO
NORAD 61240·PAYLOAD·🇨🇳 China
Este nome de satélite ainda não foi confirmado por fontes oficiais.

Lançado Sep 24, 2024 de Jiuquan Satellite Launch Center

Loading…

Próximas Passagens (próximas 24 horas)

TLE

AtualizadoSource: Space-Track

Época: Sep 14, 2026, 23:30 UTC

1 61240U 24174C   26257.97926987  .00002740  00000-0  13362-3 0  9991
2 61240  97.4496 264.6778 0001589  88.9461 271.1956 15.19148071109315

Acompanhe JILIN-1 SAR-01A em tempo real com AllMySat

Download on the App Store